NETSAT-4

Last updated on Wed Dec 17 2025 00:03:51 GMT+0000 (Coordinated Universal Time)

1 46504U 20068U 25350.27840561 .00012622 00000+0 35222-3 0 9992 2 46504 97.8593 339.8134 0004302 247.3130 112.7659 15.36886438287619
UTC large
Height (km)
Speed (km/s)
/
Latitude / Longitude
Inclination (degrees)
Orbital Period (minutes)
Azimuth
Elevation
Range (km)
Doppler Factor

Next 0 passes for location: London (51.5072 / 0.1276)

Sorry there are no passes over London.